カタログに戻る

SL-8 R/B

運用中PO
NORAD 14680·ROCKET BODY·🇷🇺 Russia

打ち上げ Feb 2, 1984 から Plesetsk Cosmodrome

Loading…

次のパス (今後24時間)

TLE

最新Source: Space-Track

元期: Sep 14, 2026, 09:15 UTC

1 14680U 84010B   26257.38570675 -.00000033  00000-0 -48202-4 0  9993
2 14680  82.9538  58.4426 0037066 330.9099  51.4839 13.76728735140307

AllMySatでSL-8 R/Bをリアルタイム追跡

Download on the App Store